(460499) = 2010 VP126 = 2014 SF315

Discovered at Kitt Peak on 2010-11-08 by Spacewatch.

Orbit

Orbit type: Main Belt

Note: WebGL enabled browser required.

epoch2023-09-13.0
epoch JD2460200.5
perihelion date2022-12-03.60095
perihelion JD2459917.10095
argument of perihelion (°)230.76382
ascending node (°)122.27596
inclination (°)3.61400
eccentricity0.1146373
perihelion distance (AU)2.3232830
Tisserand w.r.t. Jupiter3.4
ΔV w.r.t. Earth (km/sec)9.6
semimajor axis (AU)2.6241029
mean anomaly (°)65.70992
mean daily motion (°/day)0.23186360
aphelion distance (AU)2.925
period (years)4.25
P-vector [x]0.99132822
P-vector [y]-0.09251462
P-vector [z]-0.09332415
Q-vector [x]0.12011671
Q-vector [y]0.92596399
Q-vector [z]0.35799813
absolute magnitude17.61
phase slope0.15
uncertainty0
referenceMPEC 2023-Y46
observations used119
oppositions13
arc length (days)6737
first opposition used2005
last opposition used2023
residual rms (arc-secs)0.97
perturbers coarse indicatorM-v
perturbers precise indicator003Ek
first observation date used2005-07-05.0
last observation date used2023-12-15.0
computer nameMPCLINUX
JD of orbit computation2457427.122981
perihelion JD uncertainty (days)1.9925E-04
argument of perihelion uncertainty (°)1.7136E-04
ascending node uncertainty (°)1.6442E-04
inclination uncertainty (°)6.8353E-06
eccentricity uncertainty 7.2317E-08
perihelion distance uncertainty (AU)1.9167E-07
Minimum Orbit Intersection Distances (in AU)
for orbit epoch: 2460200.5, reference: E2023-Y46
Mercury1.94169
Venus1.59633
Earth1.31904
Mars0.93369
Jupiter2.47156
Saturn6.32882
Uranus15.5253
Neptune27.4059

Observations

123 total observations over interval: 2005 07 05.41929 – 2023 12 15.326443
These data are available for download (format description).

